Hanford, WA
on Thursday, January 24, 2013

Thursday
Previous Day Next Day
Daily Summary
 ActualAverage (KMWH)Record (KMWH)
Temperature
Mean Temperature °F / °C 31°F / -1°C  
Max Temperature 32°F / 0°C 37°F / 3°C 51°F / 10°C (2002)
Min Temperature 15°F / -9°C 25°F / -4°C 2°F / -16°C (2008)
Degree Days
Heating Degree Days 42 34  
Month to date heating degree days 854  
Since 1 July heating degree days 3441  
Cooling Degree Days 0 0  
Month to date cooling degree days 0  
Year to date cooling degree days 0  
Moisture
Dew Point 22°F / -6°C   
Average Humidity 88    
Maximum Humidity 98    
Minimum Humidity 73    
Precipitation
Precipitation 0.00 in / 0.00 cm 0.03 in / 0.76 cm 1.10 in / 2.79 cm (1987)
Month to date precipitation 0.98  
Year to date precipitation 0.98  
Wind
Wind Speed 6 mph / 10 km/h   
Max Wind Speed 13 mph / 21 km/h   
Max Gust Speed mph / km/h   
Visibility 8 miles / 13 kilometers   
Events     

Key: T is trace of precipitation, MM is missing value
Source: NWS Daily Summary
Time(PST)TemperatureDew PointHumidity Pressure Visibility Wind DirectionWind SpeedGust SpeedPrecipitationEvents Conditions
12:50 AM 18.9°F / -7.3°C 17.4°F / -8.1°C 94% 30.16 in / 1021.1 hPa 12.0 miles / 19.3 kilometers NW 2.3 mph / 3.7 km/h - N/A   Clear
1:50 AM 19.9°F / -6.7°C 18.5°F / -7.5°C 94% 30.20 in / 1022.5 hPa 12.0 miles / 19.3 kilometers NW 4.6 mph / 7.4 km/h - N/A   Clear
2:50 AM 15.8°F / -9.0°C 14.4°F / -9.8°C 94% 30.20 in / 1022.7 hPa 12.0 miles / 19.3 kilometers NNE 3.5 mph / 5.6 km/h - N/A   Clear
3:50 AM 16.2°F / -8.8°C 15.3°F / -9.3°C 96% 30.22 in / 1023.4 hPa 10.0 miles / 16.1 kilometers NW 4.6 mph / 7.4 km/h - N/A   Clear
4:50 AM 16.9°F / -8.4°C 16.0°F / -8.9°C 96% 30.23 in / 1023.7 hPa 6.0 miles / 9.7 kilometers West 5.8 mph / 9.3 km/h - N/A   Clear
5:50 AM 18.7°F / -7.4°C 18.0°F / -7.8°C 97% 30.24 in / 1024.0 hPa 5.0 miles / 8.0 kilometers NNW 5.8 mph / 9.3 km/h - N/A   Clear
6:50 AM 19.0°F / -7.2°C 18.1°F / -7.7°C 96% 30.26 in / 1024.7 hPa 3.0 miles / 4.8 kilometers NW 6.9 mph / 11.1 km/h - N/A   Partly Cloudy
7:50 AM 19.4°F / -7.0°C 18.3°F / -7.6°C 96% 30.28 in / 1025.4 hPa 5.0 miles / 8.0 kilometers NNW 5.8 mph / 9.3 km/h - N/A   Mostly Cloudy
8:50 AM 24.3°F / -4.3°C 23.7°F / -4.6°C 98% 30.30 in / 1026.0 hPa 3.0 miles / 4.8 kilometers NW 10.4 mph / 16.7 km/h - N/A   Mostly Cloudy
9:50 AM 27.7°F / -2.4°C 25.2°F / -3.8°C 90% 30.30 in / 1026.1 hPa 6.0 miles / 9.7 kilometers NW 12.7 mph / 20.4 km/h - N/A   Partly Cloudy
10:50 AM 30.7°F / -0.7°C 24.8°F / -4.0°C 79% 30.30 in / 1026.1 hPa 6.0 miles / 9.7 kilometers NW 12.7 mph / 20.4 km/h - N/A   Partly Cloudy
11:50 AM 31.1°F / -0.5°C 24.1°F / -4.4°C 75% 30.31 in / 1026.2 hPa 8.0 miles / 12.9 kilometers NW 12.7 mph / 20.4 km/h - N/A   Mostly Cloudy
12:50 PM 32.5°F / 0.3°C 24.6°F / -4.1°C 73% 30.29 in / 1025.6 hPa 10.0 miles / 16.1 kilometers NW 10.4 mph / 16.7 km/h - N/A   Overcast
1:50 PM 31.8°F / -0.1°C 24.8°F / -4.0°C 75% 30.27 in / 1024.9 hPa 10.0 miles / 16.1 kilometers NW 9.2 mph / 14.8 km/h - N/A   Overcast
2:50 PM 31.1°F / -0.5°C 24.8°F / -4.0°C 77% 30.27 in / 1024.9 hPa 8.0 miles / 12.9 kilometers NW 11.5 mph / 18.5 km/h - N/A   Overcast
3:50 PM 29.5°F / -1.4°C 24.4°F / -4.2°C 81% 30.25 in / 1024.1 hPa 8.0 miles / 12.9 kilometers NW 10.4 mph / 16.7 km/h - N/A   Overcast
4:50 PM 28.6°F / -1.9°C 24.4°F / -4.2°C 84% 30.24 in / 1024.0 hPa 7.0 miles / 11.3 kilometers WNW 10.4 mph / 16.7 km/h - N/A   Overcast
5:50 PM 28.4°F / -2.0°C 24.3°F / -4.3°C 84% 30.24 in / 1024.0 hPa 7.0 miles / 11.3 kilometers NW 10.4 mph / 16.7 km/h - N/A   Overcast
6:50 PM 28.0°F / -2.2°C 24.3°F / -4.3°C 86% 30.23 in / 1023.5 hPa 10.0 miles / 16.1 kilometers WNW 10.4 mph / 16.7 km/h - N/A   Overcast
10:50 PM 29.3°F / -1.5°C 27.0°F / -2.8°C 91% 30.23 in / 1023.5 hPa 12.0 miles / 19.3 kilometers West 2.3 mph / 3.7 km/h - N/A   Overcast
11:50 PM 29.3°F / -1.5°C 26.4°F / -3.1°C 89% 30.23 in / 1023.5 hPa 12.0 miles / 19.3 kilometers WNW 4.6 mph / 7.4 km/h - N/A   Overcast
Moon Phase
Jan. 24 Jan. 26 Feb. 03 Feb. 10 Feb. 17
Sunrise:07:30 AM (PST) Moon Rise:02:55 PM (PST)1/24
Sunset:04:51 PM (PST) Moon Set:05:34 AM (PST)1/24

Copyright © 2014 The Weather Underground, Inc.